Weather in Tyumencevo

Russia / Altai Krai     53°19′03″N   81°30′01″E
temp.,
°C
wind,
m/s
gust,
m/s
humid.,
%
clouds,
%
prec.,
mm/h
press.,
hPa
HPBL,
m
23 october, sat
sat2301:00+3ssw8155059 0.0 1025733
04:00+3ssw916495 0.0 1025876
07:00+3ssw9165158 0.0 1025967
10:00+4ssw10164791 0.0 10241113
13:00+6ssw111745100 0.0 10221148
16:00+6ssw121954100 0.0 10201181
19:00+5ssw121973100 0.6 10211100
22:00+7sw111765100 0.1 10211075
24 october, sun
sun2401:00+7sw101768100 0.5 1020874
04:00+8sw101761100 0.0 1020781
07:00+8sw91659100 0.0 1020744
10:00+8sw91564100 0.0 1022723
13:00+11sw913605 0.0 10221028
16:00+12sw8115845 0.0 10221312
19:00+10ssw6126761 0.0 1023434
22:00+8ssw61269100 0.0 1023333
25 october, mon
mon2501:00+8ssw6137191 0.0 1022336
04:00+8ssw61475100 0.0 1021359
07:00+7ssw71572100 0.0 1020398
10:00+8ssw7166398 0.0 1019529
13:00+12sw9144289 0.0 1018883
16:00+13sw8123668 0.0 10171014
19:00+10sw4104485 0.0 1019204
22:00+8ssw3651100 0.0 1019112
26 october, tue
tue2601:00+8ssw3455100 0.0 101881
04:00+7s4761100 0.0 1016138
07:00+7s51249100 0.0 1014266
10:00+9s81841100 0.0 1010662
13:00+11s81535100 0.0 1007683
16:00+14ssw101632100 0.0 10041126
19:00+12sw81634100 0.0 1004715
22:00+6w91585100 0.1 10101034
27 october, wed
wed2701:00+5w101562100 0.2 10151656
04:00+1w813645 0.1 10211123
07:00−1w610635 0.1 1026746
10:00−1wsw696376 0.0 1028653
13:00+2wsw67445 0.0 10291107
16:00+3wsw683446 0.0 10281267
19:000wsw36435 0.0 1029120
22:00−1sw344722 0.0 103074